Weather observations for the past three days for
Vavau International Airport
| Date | Time (+13) | Wind (kph) | Vis. (km) | Weather | Sky Cond. | Temperature (ºC) | Relative Humidity | Wind Chill (°C) | Heat Index (°C) | Pressure | Precipitation (cm) | ||||||
|---|---|---|---|---|---|---|---|---|---|---|---|---|---|---|---|---|---|
| Air | Dwpt | 6 hour | altimeter (cm) | sea level (mb) | 1 hr | 3 hr | 6 hr | ||||||||||
| Max. | Min. | ||||||||||||||||
| 02 | 12:00 | SE 9 | 0.00 | Overcast | SCT008 BKN016TCU OVC045 | 23 | 21 | 89% | 0 | 0.0 | |||||||
| 02 | 11:00 | SE 11 | 0.00 | Light Showers Rain | SCT008 BKN016TCU BKN045 | 23 | 21 | 89% | 0 | 0.0 | |||||||
| 02 | 10:00 | SE 9 | 0.00 | Light Showers Rain | FEW008 BKN016 BKN040 | 23 | 22 | 94% | 0 | 0.0 | |||||||
| 02 | 08:00 | SE 7 | 0.00 | Mostly Cloudy | FEW008 SCT015 BKN040 | 23 | 20 | 83% | 0 | 0.0 | |||||||
| 02 | 06:00 | SE 6 | 0.00 | Mostly Cloudy | SCT015 BKN040 | 23 | 21 | 89% | 0 | 0.0 | |||||||
| 02 | 05:00 | SE 6 | 0.00 | Mostly Cloudy | FEW014 BKN040 | 22 | 21 | 94% | 0 | 0.0 | |||||||
| 02 | 04:00 | SE 9 | 0.00 | Mostly Cloudy | FEW014 BKN040 | 23 | 20 | 83% | 0 | 0.0 | |||||||
| 02 | 03:00 | SE 6 | 0.00 | Mostly Cloudy | FEW014 BKN040 | 23 | 21 | 89% | 0 | 0.0 | |||||||
| 02 | 02:00 | SE 6 | 0.00 | Mostly Cloudy | FEW014 BKN040 | 23 | 21 | 89% | 0 | 0.0 | |||||||
| 02 | 01:00 | SE 7 | 0.00 | Mostly Cloudy | SCT014 BKN100 | 23 | 20 | 83% | 0 | 0.0 | |||||||
| 01 | 18:00 | S 7 | 0.00 | Light Drizzle | FEW007 SCT015TCU BKN040 | 23 | 21 | 89% | 0 | 0.0 | |||||||
| 01 | 17:00 | S 9 | 0.00 | Mostly Cloudy | SCT015TCU BKN040 | 23 | 21 | 89% | 0 | 0.0 | |||||||
| 01 | 15:00 | S 9 | 0.00 | Mostly Cloudy | SCT016TCU BKN040 | 24 | 22 | 89% | 24 | 0 | 0.0 | ||||||
| 01 | 14:00 | S 9 | 0.00 | Mostly Cloudy | FEW008 BKN016TCU | 25 | 22 | 83% | 26 | 0 | 0.0 | ||||||
| 01 | 12:00 | S 7 | 0.00 | Mostly Cloudy | SCT008 BKN016TCU | 25 | 22 | 83% | 26 | 0 | 0.0 | ||||||
| 01 | 11:00 | SE 7 | 0.00 | Mostly Cloudy | SCT008 BKN016TCU | 25 | 23 | 89% | 26 | 0 | 0.0 | ||||||
| 01 | 10:00 | S 7 | 0.00 | Mostly Cloudy | FEW008 BKN016TCU | 24 | 23 | 94% | 23 | 0 | 0.0 | ||||||
| 01 | 09:00 | Vrbl 4 | 0.00 | Mostly Cloudy | SCT008 BKN016TCU | 24 | 23 | 94% | 23 | 0 | 0.0 | ||||||
| 01 | 08:00 | Calm | 0.00 | Partly Cloudy | SCT014TCU | 20 | 20 | 100% | 0 | 0.0 | |||||||
| 01 | 05:00 | Calm | 0.00 | A Few Clouds | FEW014TCU | 19 | 19 | 100% | 0 | 0.0 | |||||||
| 01 | 03:00 | Calm | 0.00 | Partly Cloudy | FEW014TCU SCT040 | 20 | 19 | 94% | 0 | 0.0 | |||||||
| 01 | 02:00 | Calm | 0.00 | A Few Clouds | FEW014TCU | 20 | 20 | 100% | 0 | 0.0 | |||||||
| 01 | 01:00 | Calm | 0.00 | A Few Clouds | FEW014TCU | 20 | 20 | 100% | 0 | 0.0 | |||||||
| 31 | 19:00 | NE 7 | 0.00 | Partly Cloudy | FEW015TCU SCT280 | 25 | 23 | 89% | 26 | 0 | 0.0 | ||||||
| 31 | 18:00 | SE 9 | 0.00 | Partly Cloudy | SCT015TCU | 25 | 23 | 89% | 26 | 0 | 0.0 | ||||||
| 31 | 17:00 | NE 9 | 0.00 | Smoke | SCT015TCU | 25 | 23 | 89% | 26 | 0 | 0.0 | ||||||
| 31 | 16:00 | N 13 | 0.00 | Partly Cloudy | SCT015TCU | 27 | 23 | 79% | 30 | 0 | 0.0 | ||||||
| 31 | 15:00 | N 13 | 0.00 | Partly Cloudy | SCT015TCU | 27 | 24 | 84% | 30 | 0 | 0.0 | ||||||
| 31 | 14:00 | NE 15 | 0.00 | Partly Cloudy | SCT015TCU | 27 | 24 | 84% | 30 | 0 | 0.0 | ||||||
| 31 | 13:00 | NE 13 | 0.00 | Partly Cloudy | SCT015TCU | 27 | 24 | 84% | 30 | 0 | 0.0 | ||||||
| 31 | 12:00 | E 13 | 0.00 | Partly Cloudy | FEW010 SCT015TCU | 27 | 23 | 79% | 30 | 0 | 0.0 | ||||||
| 31 | 11:00 | E 13 | 0.00 | Mostly Cloudy | SCT009 BKN016TCU | 26 | 23 | 84% | 28 | 0 | 0.0 | ||||||
| 31 | 10:00 | E 15 | 0.00 | Mostly Cloudy | FEW008 BKN016TCU | 25 | 23 | 89% | 26 | 0 | 0.0 | ||||||
| 31 | 09:00 | NE 11 | 0.00 | Mostly Cloudy | SCT018 BKN016TCU | 24 | 23 | 94% | 23 | 0 | 0.0 | ||||||
| 31 | 08:00 | NE 13 | 0.00 | Mostly Cloudy | SCT008 BKN016TCU | 24 | 23 | 94% | 23 | 0 | 0.0 | ||||||
| 31 | 07:00 | E 13 | 0.00 | Mostly Cloudy | SCT008 BKN016TCU | 24 | 23 | 94% | 23 | 0 | 0.0 | ||||||
| 31 | 04:00 | E 13 | 0.00 | Mostly Cloudy | SCT009 BKN016TCU | 23 | 22 | 94% | 0 | 0.0 | |||||||
| 31 | 03:00 | E 11 | 0.00 | Mostly Cloudy | FEW009 BKN016TCU | 23 | 22 | 94% | 0 | 0.0 | |||||||
| 31 | 02:00 | E 11 | 0.00 | Mostly Cloudy | FEW009 BKN016TCU | 24 | 23 | 94% | 23 | 0 | 0.0 | ||||||
| 31 | 01:00 | E 15 | 0.00 | Mostly Cloudy | FEW009 BKN016TCU | 24 | 23 | 94% | 23 | 0 | 0.0 | ||||||
| 30 | 18:00 | NE 13 | 0.00 | Partly Cloudy | SCT016TCU | 25 | 22 | 83% | 26 | 0 | 0.0 | ||||||
| 30 | 17:00 | E 15 | 0.00 | Partly Cloudy | SCT016TCU | 26 | 23 | 84% | 28 | 0 | 0.0 | ||||||
| 30 | 16:00 | E 17 | 0.00 | Partly Cloudy | SCT016TCU | 26 | 23 | 84% | 28 | 0 | 0.0 | ||||||
| 30 | 15:00 | E 19 | 0.00 | Partly Cloudy | SCT016TCU | 27 | 22 | 74% | 29 | 0 | 0.0 | ||||||
| 30 | 14:00 | E 20 | 0.00 | Partly Cloudy | SCT016TCU | 27 | 22 | 74% | 29 | 0 | 0.0 | ||||||
| 30 | 13:00 | E 20 | 0.00 | Partly Cloudy | SCT016TCU | 26 | 21 | 74% | 27 | 0 | 0.0 | ||||||
| Date | Time (+13) | Wind (kph) | Vis. (km) | Weather | Sky Cond. | Air | Dwpt | Max. | Min. | Relative Humidity | Wind Chill (°C) | Heat Index (°C) | altimeter (cm) | sea level (mb) | 1 hr | 3 hr | 6 hr |
| 6 hour | |||||||||||||||||
| Temperature (ºC) | Pressure | Precipitation (cm) | |||||||||||||||